Content
SEND FEEDBACK

Daily
Averages
Monthly
Summary
Canada

MONTREAL, QUEBEC


Home > North America > Canada > Quebec
Elevation: 35 meters     Latitude: 45 28N     Longitude: 073 45W

WEATHER
 
SELECT A DAY
Number of Records: 198,066;   Date Range: 1/1/95 - 7/23/14
 
SHARE

PRINT THIS DATA

[ ← Previous Day ]
WEATHER ALMANAC - 18 OCTOBER, 2013
[ Next Day → ]
[ °F ]   °C
Weather ElementAverageHighLow
Temperature12.3 °C15 °C (1:00 pm)10 °C (11:00 pm)
Dewpoint9.2 °C12 °C (11:00 am)5 °C (7:00 pm)
Humidity81.6 %100 % (4:00 am)53 % (8:00 pm)
Barometer1005.8 hPa1009.8 hPa (11:00 pm)1004.1 hPa (3:00 am)
Wind Speed19.5 km/h31.5 km/h (3:38 pm)
Wind Gust44.4 km/h (4:00 pm)
Weather ElementAverage
Visibility27.4 km
Wind DirectionWSW (235.3 °)

Weather ElementTotal
Precipitation---
Heating Degree Days5.8 (Base 18.3)
Growing Degree Days2.5 (Base 10)
Averaged from 36 records on 18 October, 2013
WEATHER CONDITIONS BREAKOUT
WIND DIRECTION BREAKOUT
WEATHER BY HOUR - 18 OCTOBER, 2013
[ °F ]   °C
Local TimeTemperatureDewpointHumidityBarometerVisibilityWind DirectionWind SpeedGust SpeedPrecipitationEventsConditions
12:58 AM13 °C11 °C88 %1005.4 hPa24.1 kmSSE (160°)11.1 km/hRainLight Rain
1:00 AM12 °C11 °C94 %1005.4 hPa24.1 kmSSE (160°)11.1 km/hRainLight Rain
2:00 AM11.7 °C10.6 °C92 %1004.7 hPa24.1 kmSSE (160°)9.3 km/hRainLight Rain
2:00 AM12 °C11 °C94 %1004.7 hPa24.1 kmSSE (160°)11.1 km/hRainLight Rain
3:00 AM12 °C11 °C94 %1004.1 hPa24.1 kmWSW (240°)7.4 km/hRainLight Rain
4:00 AM11 °C11 °C100 %1004.1 hPa24.1 kmWest (260°)9.3 km/hRainLight Rain
5:00 AM11 °C11 °C100 %1004.1 hPa24.1 kmWSW (240°)7.4 km/hOvercast
6:00 AM11 °C11 °C100 %1004.1 hPa24.1 kmWSW (250°)5.6 km/hRainLight Rain
6:21 AM11 °C11 °C100 %1004.4 hPa24.1 kmSW (220°)9.3 km/hOvercast
7:00 AM11 °C11 °C100 %1004.1 hPa19.3 kmWSW (240°)11.1 km/hOvercast
8:00 AM11.7 °C10.6 °C88 %1004.7 hPa24.1 kmWSW (240°)13 km/hPartly Cloudy
8:00 AM11 °C10 °C94 %1004.7 hPa24.1 kmWSW (240°)14.8 km/hMostly Cloudy
9:00 AM12 °C10 °C88 %1005.1 hPa24.1 kmSW (230°)14.8 km/hOvercast
9:27 AM12 °C11 °C94 %1005.1 hPa9.7 kmWSW (240°)14.8 km/hRainLight Rain Showers
9:42 AM12 °C11 °C94 %1005.1 hPa16.1 kmWSW (250°)18.5 km/hRainLight Rain Showers
10:00 AM12 °C11 °C94 %1005.1 hPa4 kmSW (230°)24.1 km/h35.2 km/hLight Drizzle
10:13 AM12 °C11 °C94 %1005.4 hPa24.1 kmWSW (240°)24.1 km/hOvercast
10:26 AM12 °C11 °C94 %1005.1 hPa19.3 kmWSW (240°)22.2 km/h31.5 km/hRainLight Rain Showers
10:36 AM13 °C11 °C88 %1005.1 hPa24.1 kmWSW (240°)18.5 km/hRainLight Rain Showers
11:00 AM14 °C12 °C88 %1005.1 hPa24.1 kmWSW (240°)18.5 km/h31.5 km/hMostly Cloudy
11:40 AM13 °C11 °C88 %1005.4 hPa24.1 kmWSW (240°)24.1 km/h35.2 km/hMostly Cloudy
12:00 PM14 °C11 °C82 %1005.4 hPa24.1 kmWSW (250°)22.2 km/hMostly Cloudy
1:00 PM15 °C10 °C72 %1005.8 hPa24.1 kmWest (260°)25.9 km/h37 km/hMostly Cloudy
2:00 PM13.9 °C7.8 °C56 %1006.1 hPa45.1 kmWSW (250°)27.8 km/hPartly Cloudy
2:00 PM14 °C7 °C63 %1006.1 hPa48.3 kmWest (260°)29.6 km/hMostly Cloudy
3:00 PM15 °C8 °C63 %1006.1 hPa48.3 kmWSW (250°)29.6 km/hMostly Cloudy
3:38 PM14 °C7 °C63 %1006.4 hPa48.3 kmWest (270°)31.5 km/hRainLight Rain Showers
4:00 PM13 °C7 °C67 %1006.4 hPa48.3 kmWest (260°)29.6 km/h44.4 km/hRainLight Rain Showers
5:00 PM13 °C7 °C67 %1006.8 hPa48.3 kmWSW (240°)22.2 km/h35.2 km/hMostly Cloudy
6:00 PM13 °C6 °C63 %1007.1 hPa48.3 kmWSW (250°)27.8 km/h38.9 km/hMostly Cloudy
7:00 PM12 °C5 °C62 %1007.8 hPa24.1 kmWSW (240°)27.8 km/h40.7 km/hMostly Cloudy
8:00 PM11.7 °C5 °C53 %1008.8 hPa24.1 kmWSW (240°)27.8 km/hPartly Cloudy
8:00 PM12 °C5 °C62 %1008.5 hPa24.1 kmWSW (240°)25.9 km/h40.7 km/hPartly Cloudy
9:00 PM12 °C5 °C62 %1009.1 hPa24.1 kmWSW (250°)31.5 km/hScattered Clouds
10:00 PM11 °C5 °C67 %1009.5 hPa24.1 kmWSW (240°)22.2 km/hPartly Cloudy
11:00 PM10 °C5 °C71 %1009.8 hPa24.1 kmWSW (250°)16.7 km/hPartly Cloudy
Hourly data recorded from CYUL, located 0 kilometers away from Montreal, Quebec







STORIES FROM OUR PARTNERS